Weather observations for the past three days for
Quakertown Airport
Imperial (Metric)
Date Time (edt) Wind (mph) Vis. (mi.) Weather Sky Cond. Temperature (ºF) Relative Humidity Wind Chill (°F) Heat Index (°F) Pressure Precipitation (in)
Air Dwpt 6 hour altimeter (in) sea level (mb) 1 hr 3 hr 6 hr
Max. Min.
14 02:55 Calm 8.00 Fair CLR 73.4 73.4 100% 30.08 0.0
14 02:35 Calm 9.00 Fair CLR 73.4 73.4 100% 30.09 0.0
14 02:15 Calm 10.00 Fair CLR 73.4 73.4 100% 30.08 0.0
14 01:55 Calm 10.00 Fair CLR 75.2 75.2 100% 73 30.09 0.0
14 01:35 Calm 10.00 Fair CLR 73.4 73.4 100% 30.09 0.0
14 01:15 Calm 10.00 Fair CLR 75.2 75.2 100% 73 30.1 0.0
14 00:55 Calm 10.00 Fair CLR 75.2 75.2 100% 73 30.1 0.0
14 00:35 Calm 10.00 Fair CLR 75.2 75.2 100% 73 30.1 0.0
14 00:15 Calm 10.00 Fair CLR 75.2 75.2 100% 73 30.1 0.0
13 23:55 Calm 10.00 Fair CLR 75.2 75.2 100% 73 30.11 0.0
13 23:35 Calm 10.00 Fair CLR 75.2 75.2 100% 73 30.1 0.0
13 23:15 Calm 10.00 Fair CLR 75.2 73.4 94% 74 30.1 0.0
13 22:55 Calm 10.00 A Few Clouds FEW060 77 73.4 89% 78 30.1 0.0
13 22:35 Calm 10.00 Partly Cloudy SCT060 77 73.4 89% 78 30.11 0.0
13 22:15 Calm 10.00 Fair CLR 77 73.4 89% 78 30.11 0.0
13 21:55 Calm 10.00 Fair CLR 78.8 73.4 84% 82 30.1 0.0
13 21:35 Calm 10.00 Fair CLR 78.8 73.4 84% 82 30.1 0.0
13 21:15 Calm 10.00 Fair CLR 80.6 71.6 74% 85 30.09 0.0
13 20:55 Calm 10.00 Fair CLR 80.6 73.4 79% 85 30.08 0.0
13 20:35 Calm 10.00 Fair CLR 82.4 73.4 74% 88 30.09 0.0
13 20:15 Calm 10.00 Fair CLR 86 71.6 62% 92 30.09 0.0
13 19:55 Calm 10.00 Fair CLR 86 71.6 62% 92 30.09 0.0
13 19:35 Calm 10.00 Fair CLR 87.8 71.6 59% 94 30.1 0.0
13 19:15 Calm 10.00 Fair CLR 87.8 69.8 55% 93 30.1 0.0
13 18:55 Calm 10.00 Fair CLR 87.8 69.8 55% 93 30.09 0.0
13 18:35 Calm 10.00 Fair CLR 89.6 69.8 52% 95 30.08 0.0
13 18:15 Calm 10.00 Fair CLR 89.6 69.8 52% 95 30.09 0.0
13 17:55 Calm 10.00 Fair CLR 89.6 68 49% 93 30.09 0.0
13 17:35 Calm 10.00 A Few Clouds FEW050 89.6 69.8 52% 95 30.09 0.0
13 17:15 SE 6 10.00 A Few Clouds FEW050 89.6 69.8 52% 95 30.09 0.0
13 16:55 Calm 10.00 Fair CLR 91.4 69.8 49% 97 30.09 0.0
13 16:35 Calm 10.00 Fair CLR 89.6 69.8 52% 95 30.1 0.0
13 16:15 Calm 10.00 Fair CLR 89.6 69.8 52% 95 30.1 0.0
13 15:55 Calm 10.00 Fair CLR 89.6 68 49% 93 30.1 0.0
13 15:35 Vrbl 5 10.00 Fair CLR 89.6 69.8 52% 95 30.1 0.0
13 15:15 Calm 10.00 Fair CLR 89.6 69.8 52% 95 30.11 0.0
13 14:55 Vrbl 3 10.00 Fair CLR 89.6 69.8 52% 95 30.11 0.0
13 14:35 Calm 10.00 A Few Clouds FEW042 87.8 69.8 55% 93 30.11 0.0
13 14:15 Vrbl 5 10.00 Partly Cloudy SCT040 86 69.8 59% 91 30.12 0.0
13 13:55 Calm 10.00 Partly Cloudy SCT037 86 69.8 59% 91 30.12 0.0
13 13:35 SE 6 9.00 Partly Cloudy SCT035 86 71.6 62% 92 30.14 0.0
13 13:15 Calm 10.00 A Few Clouds FEW034 86 71.6 62% 92 30.15 0.0
13 12:55 Vrbl 6 10.00 A Few Clouds FEW033 86 71.6 62% 92 30.15 0.0
13 12:35 Calm 10.00 A Few Clouds FEW031 86 73.4 66% 93 30.16 0.0
13 12:15 S 6 10.00 Partly Cloudy SCT032 84.2 71.6 66% 90 30.16 0.0
13 11:55 Calm 10.00 Partly Cloudy SCT028 SCT033 84.2 73.4 70% 91 30.17 0.0
13 11:35 W 5 10.00 Mostly Cloudy BKN027 84.2 73.4 70% 91 30.17 0.0
13 11:15 Vrbl 3 10.00 Mostly Cloudy BKN024 BKN029 82.4 71.6 70% 87 30.17 0.0
13 10:55 S 5 10.00 Partly Cloudy SCT021 82.4 73.4 74% 88 30.18 0.0
13 10:35 Calm 10.00 Mostly Cloudy BKN019 80.6 73.4 79% 85 30.18 0.0
13 10:15 Calm 10.00 Mostly Cloudy BKN016 BKN021 80.6 75.2 84% 86 30.18 0.0
13 09:55 Calm 10.00 Mostly Cloudy BKN015 80.6 75.2 84% 86 30.18 0.0
13 09:35 S 3 10.00 Mostly Cloudy BKN014 BKN019 78.8 75.2 89% 82 30.19 0.0
13 09:15 Calm 10.00 Mostly Cloudy SCT013 BKN019 77 77 100% 78 30.19 0.0
13 08:55 Calm 10.00 Partly Cloudy SCT009 SCT013 77 77 100% 78 30.19 0.0
13 08:35 Calm 10.00 Mostly Cloudy BKN009 77 77 100% 78 30.19 0.0
13 08:15 Calm 10.00 Overcast BKN009 OVC014 73.4 73.4 100% 30.19 0.0
13 07:55 Calm 10.00 Mostly Cloudy BKN013 BKN019 73.4 73.4 100% 30.2 0.0
13 07:35 Calm 10.00 Mostly Cloudy SCT014 BKN019 71.6 71.6 100% 30.2 0.0
13 07:15 Calm 10.00 Mostly Cloudy SCT017 SCT022 BKN026 71.6 71.6 100% 30.2 0.0
13 06:55 Calm 10.00 Mostly Cloudy BKN025 BKN080 BKN090 69.8 69.8 100% 30.19 0.0
13 06:35 S 3 10.00 Mostly Cloudy FEW010 SCT060 BKN075 69.8 69.8 100% 30.19 0.0
13 06:15 S 10 5.00 Light Drizzle BKN007 BKN012 BKN021 71.6 71.6 100% 30.19 0.0
13 05:55 E 5 2.50 Rain OVC007 73.4 73.4 100% 30.18 0.0 0.06
13 05:35 Calm 10.00 Overcast BKN009 OVC032 73.4 73.4 100% 30.18 0.0
13 05:15 Calm 10.00 Overcast FEW023 BKN032 OVC049 73.4 73.4 100% 30.18 0.0
13 04:55 Calm 10.00 Overcast FEW011 BKN023 OVC065 73.4 73.4 100% 30.18 0.0
13 04:35 Calm 6.00 Light Drizzle BKN011 BKN021 BKN040 73.4 73.4 100% 30.18 0.0
13 04:15 Vrbl 5 10.00 Overcast OVC010 73.4 73.4 100% 30.17 0.0
13 03:55 Calm 10.00 Overcast BKN010 OVC013 73.4 73.4 100% 30.18 0.0
13 03:35 Calm 10.00 Overcast BKN012 OVC055 73.4 73.4 100% 30.17 0.0
13 03:15 Calm 10.00 Overcast SCT010 BKN055 OVC085 73.4 73.4 100% 30.17 0.0
13 02:55 Calm 10.00 Mostly Cloudy SCT010 BKN060 BKN075 73.4 73.4 100% 30.17 0.0
13 02:35 Calm 8.00 Light Drizzle SCT008 BKN013 SCT055 73.4 73.4 100% 30.17 0.0
13 02:15 SE 3 7.00 Light Drizzle SCT006 BKN012 SCT055 73.4 73.4 100% 30.18 0.0
13 01:55 E 3 6.00 Light Drizzle SCT006 SCT014 BKN019 75.2 75.2 100% 73 30.18 0.0
13 01:35 Calm 9.00 Light Drizzle SCT006 BKN014 OVC019 75.2 75.2 100% 73 30.19 0.0
13 01:15 Calm 9.00 Light Drizzle BKN006 BKN120 75.2 75.2 100% 73 30.19 0.0
13 00:55 Calm 10.00 Partly Cloudy SCT007 SCT013 SCT020 75.2 75.2 100% 73 30.19 0.0
13 00:35 Calm 10.00 Mostly Cloudy FEW009 BKN015 BKN021 75.2 75.2 100% 73 30.19 0.0
13 00:15 Calm 10.00 Overcast SCT008 BKN016 OVC110 75.2 75.2 100% 73 30.2 0.0
12 23:55 Calm 10.00 Overcast SCT017 BKN090 OVC110 75.2 75.2 100% 73 30.2 0.0
12 23:35 Calm 10.00 Overcast FEW020 BKN095 OVC110 75.2 75.2 100% 73 30.2 0.0
12 23:15 Calm 10.00 Overcast FEW021 SCT028 OVC110 75.2 75.2 100% 73 30.21 0.0
12 22:55 Calm 10.00 Overcast BKN022 OVC027 75.2 75.2 100% 73 30.21 0.0
12 22:35 Calm 10.00 Partly Cloudy SCT023 SCT055 75.2 75.2 100% 73 30.21 0.0
12 22:15 Calm 10.00 Fair CLR 75.2 75.2 100% 73 30.21 0.0
12 21:55 E 5 9.00 A Few Clouds FEW120 75.2 75.2 100% 73 30.2 0.0
12 21:35 Calm 10.00 Light Drizzle FEW029 BKN039 BKN120 75.2 75.2 100% 73 30.2 0.0
12 21:15 Calm 10.00 Overcast FEW021 BKN029 OVC036 75.2 75.2 100% 73 30.21 0.0
12 20:55 Calm 10.00 Partly Cloudy FEW021 SCT030 SCT120 75.2 75.2 100% 73 30.2 0.0
12 20:35 Calm 10.00 Fair CLR 77 77 100% 78 30.19 0.0
12 20:15 Calm 9.00 Fair CLR 77 75.2 94% 78 30.19 0.0
12 19:55 Calm 10.00 Fair CLR 77 73.4 89% 78 30.19 0.0
12 19:35 Calm 10.00 A Few Clouds FEW100 78.8 73.4 84% 82 30.18 0.0
12 19:15 Calm 10.00 Fair CLR 78.8 73.4 84% 82 30.18 0.0
12 18:55 Calm 10.00 Light Drizzle CLR 78.8 71.6 79% 82 30.18 0.0
12 18:35 Calm 10.00 Fair CLR 78.8 71.6 79% 82 30.18 0.0
12 18:15 Calm 10.00 A Few Clouds FEW026 FEW065 78.8 69.8 74% 81 30.18 0.0
12 17:55 Calm 10.00 Partly Cloudy FEW026 SCT075 78.8 71.6 79% 82 30.16 0.0
12 17:35 Calm 10.00 Partly Cloudy SCT075 78.8 71.6 79% 82 30.17 0.0
12 17:15 Calm 10.00 Light Drizzle CLR 78.8 73.4 84% 82 30.17 0.0
12 16:55 Calm 10.00 Fair CLR 78.8 71.6 79% 82 30.17 0.0
12 16:35 Calm 10.00 Fair CLR 78.8 73.4 84% 82 30.16 0.0
12 16:15 Calm 8.00 Light Drizzle CLR 78.8 73.4 84% 82 30.17 0.0
12 15:55 Calm 9.00 Light Drizzle CLR 78.8 73.4 84% 82 30.17 0.0
12 15:35 Calm 10.00 A Few Clouds FEW043 78.8 73.4 84% 82 30.18 0.0
12 15:15 Calm 10.00 Mostly Cloudy BKN044 77 73.4 89% 78 30.18 0.0
12 14:55 Calm 10.00 Overcast BKN045 OVC050 77 73.4 89% 78 30.19 0.0
12 14:35 Calm 10.00 Overcast FEW033 BKN042 OVC050 75.2 73.4 94% 74 30.2 0.0
12 14:15 SE 6 9.00 Light Drizzle FEW019 SCT027 BKN033 75.2 75.2 100% 73 30.2 0.0
12 13:55 Calm 9.00 Light Drizzle SCT019 BKN027 OVC033 77 73.4 89% 78 30.2 0.0
12 13:35 E 3 10.00 Partly Cloudy SCT026 78.8 71.6 79% 82 30.2 0.0
12 13:15 Calm 10.00 Fair CLR 78.8 71.6 79% 82 30.16 0.0
12 12:55 Vrbl 7 10.00 Fair CLR 78.8 71.6 79% 82 30.16 0.0
12 12:35 Calm 10.00 A Few Clouds FEW025 77 71.6 83% 78 30.18 0.0
12 12:15 SE 6 10.00 Mostly Cloudy SCT026 SCT042 BKN070 77 73.4 89% 78 30.21 0.0
12 11:55 Vrbl 7 G 13 10.00 Mostly Cloudy BKN026 BKN040 BKN070 77 71.6 83% 78 30.22 0.0
12 11:35 SE 5 10.00 Mostly Cloudy FEW028 SCT038 BKN070 78.8 68 70% 81 30.21 0.0
12 11:15 E 6 10.00 A Few Clouds FEW070 80.6 68 66% 83 30.21 0.0
12 10:55 Calm 10.00 Fair CLR 78.8 68 70% 81 30.18 0.0
12 10:35 Calm 10.00 A Few Clouds FEW065 77 68 74% 79 30.17 0.0
12 09:55 Calm 10.00 Partly Cloudy SCT070 SCT090 75.2 69.8 83% 75 30.19 0.0
12 09:35 Calm 10.00 Fair CLR 75.2 69.8 83% 75 30.19 0.0
12 09:15 Calm 10.00 Fair CLR 75.2 71.6 89% 75 30.18 0.0
12 08:55 Calm 10.00 A Few Clouds FEW080 73.4 71.6 94% 30.16 0.0
12 08:35 Calm 10.00 Fair CLR 71.6 71.6 100% 30.16 0.0
12 08:15 Calm 5.00 Light Rain CLR 69.8 69.8 100% 30.17 0.0
12 07:55 Calm 10.00 A Few Clouds FEW027 FEW120 69.8 69.8 100% 30.17 0.0
12 07:35 Calm 10.00 A Few Clouds FEW110 69.8 69.8 100% 30.17 0.0
12 07:15 Calm 10.00 A Few Clouds FEW100 69.8 69.8 100% 30.16 0.0
12 06:55 Calm 10.00 Fair CLR 68 68 100% 30.15 0.0
12 06:15 Calm 10.00 Fair CLR 66.2 66.2 100% 30.15 0.0
12 05:55 Calm 10.00 Fair CLR 64.4 64.4 100% 30.15 0.0
12 05:35 Calm 10.00 Fair CLR 64.4 64.4 100% 30.14 0.0
12 05:15 Calm 2.50 Fog/Mist CLR 64.4 64.4 100% 30.13 0.0
12 04:55 Calm 5.00 Fog/Mist CLR 64.4 64.4 100% 30.13 0.0
12 04:35 Calm 10.00 Fair CLR 64.4 64.4 100% 30.12 0.0
12 04:15 Calm 10.00 Fair CLR 64.4 64.4 100% 30.12 0.0
12 03:55 Calm 10.00 Fair CLR 64.4 64.4 100% 30.11 0.0
12 03:15 Calm 10.00 Fair CLR 66.2 66.2 100% 30.11 0.0
12 02:55 Calm 9.00 Fair CLR 66.2 66.2 100% 30.11 0.0
12 02:35 Calm 10.00 Fair CLR 66.2 66.2 100% 30.12 0.0
12 02:15 Calm 10.00 Fair CLR 66.2 66.2 100% 30.11 0.0
12 01:55 Calm 10.00 Fair CLR 66.2 66.2 100% 30.12 0.0
12 01:35 Calm 10.00 Fair CLR 66.2 66.2 100% 30.12 0.0
12 01:15 Calm 10.00 Fair CLR 66.2 66.2 100% 30.12 0.0
12 00:55 Calm 10.00 Fair CLR 68 68 100% 30.12 0.0
12 00:35 Calm 10.00 Fair CLR 68 68 100% 30.11 0.0
12 00:15 Calm 10.00 Fair CLR 68 68 100% 30.11 0.0
11 23:55 Calm 10.00 Fair CLR 68 68 100% 30.11 0.0
11 23:35 Calm 10.00 Fair CLR 68 68 100% 30.11 0.0
11 22:55 Calm 10.00 Fair CLR 69.8 69.8 100% 30.1 0.0
11 22:35 Calm 10.00 Fair CLR 69.8 69.8 100% 30.1 0.0
11 22:15 Calm 10.00 Fair CLR 69.8 69.8 100% 30.1 0.0
11 21:55 Calm 10.00 Fair CLR 71.6 69.8 94% 30.1 0.0
11 21:35 Calm 10.00 Fair CLR 71.6 68 88% 30.09 0.0
11 21:15 Calm 10.00 Fair CLR 73.4 68 83% 30.08 0.0
11 20:55 Calm 10.00 Fair CLR 73.4 68 83% 30.08 0.0
11 20:35 Calm 10.00 Fair CLR 75.2 66.2 74% 77 30.07 0.0
11 20:15 Calm 10.00 Fair CLR 77 66.2 69% 79 30.06 0.0
11 19:55 Calm 10.00 Fair CLR 78.8 66.2 65% 81 30.06 0.0
11 19:35 Calm 10.00 Partly Cloudy SCT050 78.8 66.2 65% 81 30.06 0.0
11 19:15 Calm 10.00 Overcast OVC050 78.8 66.2 65% 81 30.06 0.0
11 18:55 SW 3 10.00 Mostly Cloudy BKN050 78.8 66.2 65% 81 30.05 0.0
11 18:35 Calm 10.00 Mostly Cloudy BKN050 80.6 66.2 62% 83 30.04 0.0
11 18:15 Vrbl 5 10.00 Overcast OVC050 80.6 66.2 62% 83 30.04 0.0
11 17:55 Vrbl 6 G 12 10.00 Overcast OVC050 80.6 66.2 62% 83 30.03 0.0
11 17:35 S 8 10.00 Overcast OVC050 80.6 64.4 58% 82 30.03 0.0
11 17:15 SW 8 10.00 Mostly Cloudy BKN050 80.6 64.4 58% 82 30.03 0.0
11 16:55 SW 9 G 18 10.00 Mostly Cloudy FEW043 BKN050 82.4 64.4 55% 84 30.02 0.0
11 16:35 Vrbl 7 G 15 10.00 Mostly Cloudy BKN048 82.4 64.4 55% 84 30.02 0.0
11 16:15 SW 8 10.00 Mostly Cloudy BKN044 BKN050 82.4 66.2 58% 85 30.01 0.0
11 15:55 S 9 10.00 Partly Cloudy SCT045 82.4 66.2 58% 85 30.01 0.0
11 15:35 S 7 10.00 Mostly Cloudy BKN046 82.4 64.4 55% 84 30.01 0.0
11 15:15 Calm 10.00 Mostly Cloudy BKN044 82.4 66.2 58% 85 30 0.0
11 14:55 Calm 10.00 Partly Cloudy SCT045 82.4 66.2 58% 85 30 0.0
11 14:35 SW 7 10.00 Partly Cloudy SCT043 82.4 66.2 58% 85 30 0.0
11 14:15 S 8 10.00 Mostly Cloudy BKN042 80.6 64.4 58% 82 30 0.0
11 13:55 Vrbl 6 10.00 Mostly Cloudy BKN042 80.6 64.4 58% 82 30 0.0
11 13:35 S 8 10.00 Mostly Cloudy BKN042 82.4 64.4 55% 84 29.99 0.0
11 13:15 Vrbl 7 10.00 Partly Cloudy SCT040 80.6 64.4 58% 82 29.99 0.0
11 12:55 SW 10 10.00 Fair CLR 80.6 64.4 58% 82 29.99 0.0
11 12:35 SW 10 G 16 10.00 A Few Clouds FEW043 80.6 64.4 58% 82 29.99 0.0
11 12:15 Vrbl 7 G 14 10.00 Partly Cloudy SCT042 80.6 64.4 58% 82 29.99 0.0
11 11:55 SW 8 G 15 10.00 Mostly Cloudy BKN042 80.6 66.2 62% 83 29.98 0.0
11 11:35 SW 8 10.00 Overcast BKN042 OVC047 78.8 64.4 61% 81 29.98 0.0
11 11:15 S 5 10.00 Mostly Cloudy BKN041 80.6 64.4 58% 82 29.97 0.0
11 10:55 SW 9 10.00 Partly Cloudy SCT039 SCT045 78.8 64.4 61% 81 29.97 0.0
11 10:35 S 9 G 15 10.00 Fair CLR 80.6 64.4 58% 82 29.96 0.0
11 10:15 SW 7 G 16 10.00 Fair CLR 78.8 64.4 61% 81 29.96 0.0
11 09:55 SW 8 G 14 10.00 Fair CLR 78.8 64.4 61% 81 29.95 0.0
11 09:35 S 10 G 16 10.00 Fair CLR 77 64.4 65% 79 29.95 0.0
11 09:15 Vrbl 5 G 13 10.00 Fair CLR 77 66.2 69% 79 29.95 0.0
11 08:55 S 7 G 13 10.00 Fair CLR 77 66.2 69% 79 29.95 0.0
11 08:35 SW 8 10.00 Fair CLR 75.2 66.2 74% 77 29.94 0.0
11 08:15 S 6 10.00 Fair CLR 75.2 68 78% 76 29.94 0.0
11 07:55 Calm 10.00 Fair CLR 73.4 66.2 78% 29.93 0.0
11 07:35 Calm 10.00 Fair CLR 73.4 66.2 78% 29.93 0.0
11 07:15 Calm 10.00 Fair CLR 71.6 66.2 83% 29.92 0.0
11 06:55 Calm 10.00 Fair CLR 69.8 66.2 88% 29.91 0.0
11 06:35 Calm 10.00 Fair CLR 68 68 100% 29.91 0.0
11 06:15 Calm 10.00 Fair CLR 68 68 100% 29.9 0.0
11 05:55 Calm 10.00 Fair CLR 68 68 100% 29.9 0.0
11 05:35 Calm 10.00 Fair CLR 68 68 100% 29.88 0.0
11 05:15 Calm 10.00 Fair CLR 69.8 68 94% 29.87 0.0
11 04:55 Calm 10.00 A Few Clouds FEW070 69.8 68 94% 29.86 0.0
11 04:35 Calm 10.00 Partly Cloudy SCT070 71.6 69.8 94% 29.85 0.0
11 04:15 Calm 10.00 Fair CLR 71.6 71.6 100% 29.85 0.0
11 03:55 Calm 10.00 Fair CLR 73.4 73.4 100% 29.83 0.0
11 03:35 Calm 10.00 A Few Clouds FEW065 73.4 73.4 100% 29.83 0.0
11 03:15 Calm 10.00 Overcast OVC065 73.4 73.4 100% 29.83 0.0
Date Time (edt) Wind (mph) Vis. (mi.) Weather Sky Cond. Air Dwpt Max. Min. Relative Humidity Wind Chill (°F) Heat Index (°F) altimeter (in) sea level (mb) 1 hr 3 hr 6 hr
6 hour
Temperature (ºF) Pressure Precipitation (in)